User: anonymous   Login
Location: Kaarina
(60.4167°N, 22.4167°E)
Time: 20:40:03
(UTC+03:00)
Language:

Cosmos 1743 - Orbit

View from above orbital plane
View from above orbital plane
View from above satellite
View from above satellite

Ground track
Ground track

The orbit data is extracted from the following two-line orbital elements,

1 16719U 86034A   19295.92267060 +.00000607 +00000-0 +30322-4 0  9990
2 16719 082.5537 231.4007 0011683 185.0044 238.8788 15.15521215825304
Epoch (UTC): 22 October 2019 22:08:38
Eccentricity: 0.0011683
inclination: 82.5537°
perigee height: 511 km
apogee height: 527 km
right ascension of ascending node: 231.4007°
argument of perigee: 185.0044°
revolutions per day: 15.15521215
mean anomaly at epoch: 238.8788°
orbit number at epoch: 82530

The dashed part of the orbit path shows where the satellite is in the earth's shadow,  

DLR